Find Starlink 11385

NORAD ID: 62014 Int'l Des: 2024-213 Owner: SPXS Country: US Constellation: starlink operational
LEOCIRCULAR

Current View

Loading 3D Globe...

About Starlink 11385

Starlink 11385 (NORAD 62014) is a starlink constellation satellite (v2 mini d2c) launched Nov 18, 2024 by SPXS of US. It operates in LEO, CIRCULAR orbit with a mass of 960.00 kg.

About Starlink 11385

Description loading...

Upcoming Passes

Passes for default location (London). Set your location on the main map for personalized predictions.

Altitude History

Loading altitude history...

Two-Line Element Set

1 62014U 24213G 26174.89500364 .00181917 00000-0 14698-2 0 9997
2 62014 53.1569 237.8773 0001442 59.4795 300.6366 15.69773948 91598
Epoch: Jun 23, 2026 • Age: 14 hours

Current Status

Altitude 361.0 km
Velocity 7.69 km/s
Sub-Earth Point -8.23°S, 148.44°E
Launch Date Nov 18, 2024
Age 1.5 years
Type internet

Technical Details

Classification Payload
Mass 960.00 kg
Dry Mass 910.00 kg
Total Mass 960.00 kg
Length 0.30 m
Diameter 4.10 m
Span 29.00 m
Shape Box + pan
Manufacturer SPXS
Bus Type Starlink V2MD
Phase Status In Orbit
Owner/State SPXS/US

Most Searched